Smyrna, TN

2:05 PM CDT on July 28, 2017 (GMT -0500)
Smyrna

Weather History for KMQY - April, 2012

Change the Weather History Date:

Friday, April 27, 2012

  Actual Average Record
Temperature  
Mean Temperature 64 °F -  
Max Temperature 77 °F 69 °F 84 °F (2016)
Min Temperature 50 °F 52 °F 41 °F (2006)
Degree Days  
Heating Degree Days 2    
Growing Degree Days 14 (Base 50)    
Moisture  
Dew Point 54 °F    
Average Humidity 75    
Maximum Humidity 100    
Minimum Humidity 40    
Precipitation  
Precipitation 0.00 in - - ()
Sea Level Pressure  
Sea Level Pressure 30.02 in    
Wind  
Wind Speed 3 mph (NNE)    
Max Wind Speed 10 mph    
Max Gust Speed -    
Visibility 7 miles    
Events Fog    
Averages and records for this station are not official NWS values.
T = Trace of Precipitation, MM = Missing Value Source: NWS Daily Summary

Daily Weather History Graph

Daily Weather History Graph

Search for Another Location

Airport or City:

Trip Planner

Search our weather history database for the weather conditions in past years. The results will help you decide how hot, cold, wet, or windy it might be!

Date:

Astronomy

Apr. 27, 2012 Rise Set
Actual Time 5:57 AM CDT 7:30 PM CDT
Civil Twilight 5:30 AM CDT 7:57 PM CDT
Nautical Twilight 4:57 AM CDT 8:30 PM CDT
Astronomical Twilight 4:23 AM CDT 9:04 PM CDT
Moon 10:37 AM CDT (4/27) 12:14 AM CDT (4/27)
Length of Visible Light 14h 27m
Length of Day
13h 32m
Waxing Crescent, 33% of the Moon is Illuminated
Apr 27
Waxing Crescent
Apr 29
First Quarter
May 5
Full
May 12
Last Quarter
May 20
New

Hourly Weather History & Observations

Time (CDT) Temp. Dew Point Humidity Pressure Visibility Wind Dir Wind Speed Gust Speed Precip Events Conditions
12:26 AM 60.8 °F 60.8 °F 100% 29.96 in 0.8 mi Calm Calm - N/A   Clear
12:35 AM 60.8 °F 60.8 °F 100% 29.97 in 0.5 mi Calm Calm - N/A Fog Fog
12:48 AM 60.8 °F 60.8 °F 100% 29.97 in 0.2 mi Calm Calm - N/A Fog Fog
12:56 AM 61.0 °F 61.0 °F 100% 29.96 in 0.2 mi Calm Calm - N/A Fog Fog
1:03 AM 62.6 °F 62.6 °F 100% 29.98 in 0.8 mi Calm Calm - N/A   Mostly Cloudy
1:05 AM 62.6 °F 62.6 °F 100% 29.98 in 1.2 mi Calm Calm - N/A   Mostly Cloudy
1:07 AM 62.6 °F 62.6 °F 100% 29.98 in 2.5 mi Calm Calm - N/A   Partly Cloudy
1:14 AM 62.6 °F 62.6 °F 100% 29.98 in 3.0 mi Calm Calm - N/A   Partly Cloudy
1:24 AM 60.8 °F 60.8 °F 100% 29.98 in 1.8 mi North 5.8 mph - N/A   Mostly Cloudy
1:36 AM 60.8 °F 60.8 °F 100% 29.99 in 3.0 mi North 8.1 mph - N/A   Clear
1:56 AM 59.9 °F 59.9 °F 100% 29.97 in 10.0 mi North 9.2 mph - N/A   Clear
2:56 AM 59.0 °F 56.8 °F 93% 29.99 in 10.0 mi NNE 10.4 mph - N/A   Clear
3:56 AM 55.9 °F 54.0 °F 93% 30.02 in 10.0 mi North 6.9 mph - N/A   Clear
4:56 AM 54.0 °F 50.9 °F 89% 30.02 in 10.0 mi Calm Calm - N/A   Clear
5:56 AM 50.9 °F 48.9 °F 93% 30.04 in 10.0 mi North 4.6 mph - N/A   Clear
7:56 AM 54.9 °F 45.9 °F 72% 30.08 in 10.0 mi NE 6.9 mph - N/A   Clear
8:56 AM 56.8 °F 45.9 °F 67% 30.09 in 10.0 mi NNE 8.1 mph - N/A   Clear
9:56 AM 59.9 °F 46.9 °F 62% 30.11 in 10.0 mi North 6.9 mph - N/A   Clear
10:56 AM 64.9 °F 47.8 °F 54% 30.11 in 6.0 mi North 5.8 mph - N/A   Haze
11:56 AM 70.9 °F 48.9 °F 46% 30.09 in 10.0 mi NE 8.1 mph - N/A   Clear
12:56 PM 72.9 °F 48.9 °F 43% 30.07 in 10.0 mi NNE 10.4 mph - N/A   Partly Cloudy
1:56 PM 73.9 °F 50.9 °F 44% 30.06 in 10.0 mi NNE 6.9 mph - N/A   Mostly Cloudy
2:56 PM 77.0 °F 50.9 °F 40% 30.02 in 10.0 mi NNE 8.1 mph - N/A   Clear
3:56 PM 73.9 °F 52.0 °F 46% 30.02 in 10.0 mi North 8.1 mph - N/A   Scattered Clouds
4:56 PM 73.9 °F 52.0 °F 46% 30.01 in 10.0 mi NE 8.1 mph - N/A   Scattered Clouds
5:56 PM 72.0 °F 52.0 °F 49% 30.01 in 10.0 mi NE 8.1 mph - N/A   Partly Cloudy
6:56 PM 68.9 °F 50.0 °F 51% 29.99 in 10.0 mi ESE 8.1 mph - N/A   Partly Cloudy
7:56 PM 64.9 °F 50.9 °F 60% 30.03 in 10.0 mi North 8.1 mph - N/A   Mostly Cloudy
8:56 PM 64.9 °F 50.9 °F 60% 30.02 in 10.0 mi Calm Calm - N/A   Mostly Cloudy
9:56 PM 64.9 °F 48.9 °F 56% 30.01 in 10.0 mi Calm Calm - N/A   Mostly Cloudy
10:56 PM 61.0 °F 47.8 °F 62% 30.00 in 10.0 mi Calm Calm - N/A   Clear
11:56 PM 59.9 °F 48.9 °F 67% 29.99 in 10.0 mi Calm Calm - 0.00 in   Clear